When you browse on this site, cookies collect data to enhance your experience and personalize the content and advertising you see.
Visit our Privacy Policy to learn more. By continuing to use the site, you agree to this use of cookies and data.
  • In Austria
  • List of Countries
  • For 7 days
  • Water Temperature
  • Satellite Maps
  • Weather Map
  • News
  • Weather Widgets
  • user-avatar
    Login

    Hourly Weather Uige

    Today, 21 January, Monday

    Time Temperature Precipitation Wind Pressure Humidity
    00:00 +20°C° 0.4 mm 0 mps 692 mmHg 97%
    01:00 +20°C° 0 mm 0 mps 692 mmHg 97%
    02:00 +20°C° 0.4 mm 0 mps 692 mmHg 97%
    03:00 +20°C° 0.4 mm 0 mps 692 mmHg 98%
    04:00 +20°C° 0.4 mm 0 mps 692 mmHg 98%
    05:00 +20°C° 0.4 mm 0 mps 692 mmHg 98%
    06:00 +20°C° 0.4 mm 0 mps 692 mmHg 98%
    07:00 +20°C° 0 mm 0 mps 693 mmHg 97%
    08:00 +23°C° 0.8 mm 1 mps 693 mmHg 94%
    09:00 +25°C° 0.8 mm 1 mps 693 mmHg 92%
    10:00 +26°C° 0.8 mm 1 mps 693 mmHg 89%
    11:00 +27°C° 0.7 mm 1 mps 693 mmHg 81%
    12:00 +28°C° 0.7 mm 1 mps 692 mmHg 73%
    13:00 +30°C° 0.7 mm 2 mps 692 mmHg 65%
    14:00 +28°C° 0.9 mm 2 mps 692 mmHg 73%
    15:00 +27°C° 0.9 mm 2 mps 691 mmHg 82%
    16:00 +26°C° 0.9 mm 2 mps 691 mmHg 91%
    17:00 +25°C° 0.5 mm 1 mps 691 mmHg 93%
    18:00 +24°C° 0.5 mm 1 mps 691 mmHg 96%
    19:00 +23°C° 0.5 mm 1 mps 691 mmHg 98%
    20:00 +23°C° 0.5 mm 1 mps 691 mmHg 98%
    21:00 +21°C° 0.5 mm 0 mps 692 mmHg 98%
    22:00 +20°C° 0.5 mm 0 mps 692 mmHg 97%
    23:00 +20°C° 0.1 mm 0 mps 692 mmHg 98%

    Tomorrow, 22 January, Tuesday

    Time Temperature Precipitation Wind Pressure Humidity
    00:00 +20°C° 0.1 mm 0 mps 692 mmHg 98%
    01:00 +20°C° 0.1 mm 0 mps 692 mmHg 98%
    02:00 +20°C° 0.2 mm 0 mps 692 mmHg 98%
    03:00 +22°C° 0.2 mm 1 mps 691 mmHg 99%
    04:00 +22°C° 0.2 mm 1 mps 691 mmHg 99%
    05:00 +22°C° 0 mm 1 mps 691 mmHg 99%
    06:00 +20°C° 0 mm 0 mps 692 mmHg 98%
    07:00 +20°C° 0 mm 0 mps 692 mmHg 98%
    08:00 +23°C° 0.1 mm 1 mps 692 mmHg 92%
    09:00 +25°C° 0.1 mm 1 mps 693 mmHg 85%
    10:00 +26°C° 0.1 mm 1 mps 693 mmHg 78%
    11:00 +27°C° 0.2 mm 2 mps 693 mmHg 72%
    12:00 +29°C° 0.2 mm 2 mps 693 mmHg 65%
    13:00 +30°C° 0.2 mm 2 mps 692 mmHg 59%
    14:00 +29°C° 0.7 mm 2 mps 691 mmHg 67%
    15:00 +28°C° 0.7 mm 2 mps 691 mmHg 76%
    16:00 +27°C° 0.7 mm 2 mps 690 mmHg 84%
    17:00 +25°C° 0.4 mm 2 mps 690 mmHg 89%
    18:00 +24°C° 0.4 mm 1 mps 690 mmHg 93%
    19:00 +23°C° 0.4 mm 1 mps 690 mmHg 98%
    20:00 +22°C° 0.2 mm 1 mps 691 mmHg 98%
    21:00 +22°C° 0.2 mm 1 mps 692 mmHg 98%
    22:00 +22°C° 0.2 mm 1 mps 692 mmHg 98%
    23:00 +22°C° 0 mm 1 mps 692 mmHg 98%

    Day after tomorrow, 23 January, Wednesday

    Time Temperature Precipitation Wind Pressure Humidity
    00:00 +22°C° 0 mm 1 mps 692 mmHg 99%
    01:00 +21°C° 0 mm 2 mps 692 mmHg 99%
    02:00 +22°C° 0.1 mm 1 mps 691 mmHg 99%
    03:00 +22°C° 0.1 mm 1 mps 691 mmHg 98%
    04:00 +22°C° 0.1 mm 1 mps 691 mmHg 98%
    05:00 +22°C° 0 mm 1 mps 691 mmHg 98%
    06:00 +21°C° 0 mm 1 mps 691 mmHg 98%
    07:00 +21°C° 0 mm 1 mps 692 mmHg 98%
    08:00 +23°C° 0 mm 1 mps 692 mmHg 91%
    09:00 +24°C° 0 mm 1 mps 693 mmHg 83%
    10:00 +25°C° 0 mm 2 mps 693 mmHg 76%
    11:00 +26°C° 0 mm 2 mps 693 mmHg 69%
    12:00 +28°C° 0 mm 2 mps 693 mmHg 62%
    13:00 +29°C° 0 mm 2 mps 692 mmHg 54%
    14:00 +29°C° 0 mm 2 mps 691 mmHg 56%
    15:00 +29°C° 0 mm 2 mps 691 mmHg 58%
    16:00 +29°C° 0 mm 2 mps 690 mmHg 59%
    17:00 +27°C° 0 mm 2 mps 690 mmHg 66%
    18:00 +26°C° 0 mm 1 mps 690 mmHg 74%
    19:00 +24°C° 0 mm 1 mps 690 mmHg 81%
    20:00 +23°C° 0 mm 1 mps 691 mmHg 83%
    21:00 +23°C° 0 mm 1 mps 691 mmHg 85%
    22:00 +22°C° 0 mm 1 mps 692 mmHg 87%
    23:00 +22°C° 0 mm 1 mps 691 mmHg 90%

    24 January, Thursday

    Time Temperature Precipitation Wind Pressure Humidity
    00:00 +21°C° 0 mm 1 mps 691 mmHg 92%
    01:00 +21°C° 0 mm 1 mps 690 mmHg 94%
    02:00 +21°C° 0 mm 1 mps 690 mmHg 95%
    03:00 +18°C° 0 mm 0 mps 690 mmHg 97%
    04:00 +18°C° 0 mm 0 mps 690 mmHg 98%
    05:00 +19°C° 0 mm 0 mps 690 mmHg 97%
    06:00 +19°C° 0 mm 0 mps 690 mmHg 95%
    07:00 +19°C° 0 mm 0 mps 691 mmHg 94%
    08:00 +22°C° 0 mm 0 mps 691 mmHg 80%
    09:00 +26°C° 0 mm 1 mps 692 mmHg 66%
    10:00 +29°C° 0 mm 1 mps 693 mmHg 53%
    11:00 +30°C° 0 mm 1 mps 692 mmHg 49%
    12:00 +31°C° 0 mm 2 mps 691 mmHg 45%
    13:00 +32°C° 0 mm 2 mps 691 mmHg 41%
    14:00 +31°C° 0 mm 2 mps 690 mmHg 44%
    15:00 +31°C° 0 mm 2 mps 689 mmHg 47%
    16:00 +31°C° 0 mm 2 mps 688 mmHg 50%
    17:00 +28°C° 0 mm 2 mps 689 mmHg 59%
    18:00 +26°C° 0 mm 1 mps 689 mmHg 68%
    19:00 +24°C° 0 mm 1 mps 689 mmHg 77%
    20:00 +23°C° 0 mm 1 mps 690 mmHg 80%
    21:00 +23°C° 0 mm 1 mps 690 mmHg 84%
    22:00 +20°C° 0 mm 0 mps 691 mmHg 88%
    23:00 +20°C° 0 mm 0 mps 690 mmHg 91%

    25 January, Friday

    Time Temperature Precipitation Wind Pressure Humidity
    00:00 +22°C° 0 mm 1 mps 690 mmHg 94%
    01:00 +22°C° 0 mm 1 mps 690 mmHg 97%
    02:00 +20°C° 0 mm 0 mps 690 mmHg 98%
    03:00 +19°C° 0 mm 0 mps 690 mmHg 98%
    04:00 +19°C° 0 mm 0 mps 690 mmHg 99%
    05:00 +20°C° 0 mm 0 mps 690 mmHg 98%
    06:00 +20°C° 0 mm 0 mps 691 mmHg 97%
    07:00 +20°C° 0 mm 0 mps 691 mmHg 96%
    08:00 +23°C° 0 mm 0 mps 692 mmHg 84%
    09:00 +26°C° 0 mm 0 mps 692 mmHg 72%
    10:00 +28°C° 0 mm 0 mps 693 mmHg 60%
    11:00 +31°C° 0 mm 1 mps 692 mmHg 54%
    12:00 +32°C° 0 mm 1 mps 691 mmHg 48%
    13:00 +34°C° 0 mm 2 mps 690 mmHg 42%
    14:00 +34°C° 0 mm 2 mps 690 mmHg 44%
    15:00 +32°C° 0 mm 2 mps 689 mmHg 46%
    16:00 +32°C° 0 mm 2 mps 689 mmHg 48%
    17:00 +30°C° 0 mm 2 mps 689 mmHg 57%
    18:00 +27°C° 0 mm 1 mps 689 mmHg 67%
    19:00 +25°C° 0 mm 1 mps 689 mmHg 77%
    20:00 +24°C° 0 mm 1 mps 690 mmHg 79%
    21:00 +23°C° 0 mm 1 mps 690 mmHg 81%
    22:00 +23°C° 0 mm 1 mps 691 mmHg 83%
    23:00 +23°C° 0 mm 1 mps 691 mmHg 88%

    26 January, Saturday

    Time Temperature Precipitation Wind Pressure Humidity
    00:00 +20°C° 0 mm 0 mps 691 mmHg 93%
    01:00 +20°C° 0 mm 0 mps 691 mmHg 97%
    02:00 +20°C° 0.1 mm 0 mps 691 mmHg 97%
    03:00 +21°C° 0.1 mm 0 mps 691 mmHg 96%
    04:00 +21°C° 0.1 mm 0 mps 691 mmHg 96%
    05:00 +21°C° 0 mm 0 mps 691 mmHg 96%
    06:00 +21°C° 0 mm 0 mps 692 mmHg 96%
    07:00 +21°C° 0 mm 0 mps 692 mmHg 96%
    08:00 +24°C° 0.4 mm 1 mps 692 mmHg 89%
    09:00 +26°C° 0.4 mm 1 mps 693 mmHg 82%
    10:00 +28°C° 0.4 mm 1 mps 693 mmHg 75%
    11:00 +28°C° 1.2 mm 1 mps 693 mmHg 78%
    12:00 +28°C° 1.2 mm 2 mps 692 mmHg 81%
    13:00 +28°C° 1.2 mm 2 mps 691 mmHg 84%
    14:00 +27°C° 1 mm 2 mps 691 mmHg 86%
    15:00 +27°C° 1 mm 1 mps 690 mmHg 87%
    16:00 +26°C° 1 mm 1 mps 690 mmHg 89%
    17:00 +25°C° 0.6 mm 1 mps 690 mmHg 91%
    18:00 +24°C° 0.6 mm 1 mps 691 mmHg 94%
    19:00 +24°C° 0.6 mm 1 mps 691 mmHg 97%
    20:00 +23°C° 0.7 mm 1 mps 691 mmHg 97%
    21:00 +23°C° 0.7 mm 1 mps 692 mmHg 97%
    22:00 +21°C° 0.7 mm 0 mps 692 mmHg 97%
    23:00 +21°C° 0.1 mm 0 mps 692 mmHg 98%
    Show more